Regional Weather Roundup
Issued by NWS Grand Forks, ND

Home | Current Version | Previous Version | Text Only | Print | Product List | Glossary Off
Versions: 1 2 3 4 5 6 7 8 9 10 11 12 13 14 15 16 17 18 19 20 21 22 23 24 25 26 27 28 29 30 31 32 33 34 35 36 37 38 39 40 41 42 43 44 45 46 47 48 49 50

000
ASUS43 KFGF 060531
RWRFGF
PRAIRIE TO PINES  WEATHER ROUNDUP
NATIONAL WEATHER SERVICE EASTERN NORTH DAKOTA/GRAND FORKS ND
1100 PM CST THU MAR 05 2015

 **SATELLITE DATA USED TO AUGMENT SKY COVER AT AUTOMATED STATIONS**
 *****  WEATHER ACROSS EASTERN NORTH DAKOTA  *****

CITY           SKY/WX    TMP DP  RH WIND       PRES   REMARKS
GRAND FORKS    CLOUDY    19  11  70 S16       29.98F WCI   4
GRAND FRKS AFB CLOUDY    19  10  68 SW10      29.97F WCI   7
GRAND FRKS NWS   N/A     18 N/A N/A S10         N/A  WCI   6
DEVILS LAKE    PTCLDY    19  10  68 W13       29.93F WCI   7
FARGO          FAIR      17   7  64 S14       30.07F WCI   3
WAHPETON ARPT  CLEAR     12   5  73 S8        30.10F WCI   1
$$

 ***** WEATHER ACROSS CENTRAL AND WESTERN NORTH DAKOTA  *****

CITY           SKY/WX    TMP DP  RH WIND       PRES   REMARKS
BISMARCK       MOCLDY    23  12  62 W3        30.04F
MINOT          CLEAR     29  15  56 W16       29.97R WCI  17
JAMESTOWN      PTCLDY    18  10  71 SW9       29.99F WCI   7
MINOT AFB      CLEAR     22  17  79 W14       29.97R WCI   9
GARRISON         N/A     19  11  70 W7        29.98F WCI  10
WILLISTON      PTCLDY    31  20  63 NW9       30.03R WCI  23
DICKINSON      MOCLDY    27  14  58 W9        30.00F WCI  18
HETTINGER      MOCLDY    23  12  62 CALM      30.07F
$$

 *****  OTHER AIRPORT OBSERVATIONS IN OUR AREA  *****

CITY           SKY/WX    TMP DP  RH WIND       PRES   REMARKS
WALHALLA         N/A     23  14  68 NW12      29.91R WCI  12
GRAFTON AIRPOR NOT AVBL
VALLEY CITY AR CLOUDY    18  14  86 S10       29.99F WCI   6
CANDO          FAIR      18  12  79 W15       29.93S WCI   3
CAVALIER APRT  FAIR      23  14  68 W13       29.92R WCI  11
GWINNER        CLEAR     19  10  68 SW13      30.06F WCI   7
SHEYENNE NWR     N/A     11   5  77 S6        29.95S WCI   1
ROLLA          FAIR      18  10  73 NW10      29.93R WCI   6
 ***** THE ABOVE OBSERVATIONS ARE NON NWS ARE NOT QUALITY
       CONTROLLED AND MAY MIS-REPORT RAIN FOR SNOW...
$$

  *****  WEATHER ACROSS NORTHERN MINNESOTA  *****

CITY           SKY/WX    TMP DP  RH WIND       PRES   REMARKS
FLAG ISLAND    CLOUDY    16   9  73 SW20G30   29.89F WCI  -1
WARROAD        PTCLDY    18   9  68 SW18G28   29.92F WCI   2
ROSEAU         PTCLDY    18  10  73 SW18      29.92F WCI   2
HALLOCK        MOCLDY    18  12  79 S16       29.94F WCI   3
THF RVR FALLS  CLOUDY    16  10  79 S16       29.97F WCI   0
BAUDETTE       CLOUDY    13   2  61 S17       29.94F WCI  -4
WASKISH        CLOUDY    12   3  67 S9G16     29.98F WCI   0
CROOKSTON      CLOUDY    16  10  79 S20G29    30.01F WCI  -1
STEPHEN NDAWN    N/A     18  10  73 S17         N/A  WCI   2
GREENBUSH NDAW   N/A     18  10  73 SW23        N/A  WCI   0
$$
  *****  WEATHER ACROSS CENTRAL AND WEST MINNESOTA  *****

CITY           SKY/WX    TMP DP  RH WIND       PRES   REMARKS
FOSSTON        PTCLDY    12   7  79 S21       30.00F WCI  -6
BEMIDJI        CLEAR     10   2  70 S9        30.02F WCI  -3
PARK RAPIDS    PTCLDY     8   0  69 S9        30.08F WCI  -5
ELBOW LAKE     FAIR      12   5  72 S16       30.11F WCI  -5
WADENA         PTCLDY     9   1  72 S5        30.10F WCI   0
DETROIT LAKES  CLEAR     12   7  79 S9        30.07F WCI   0
MOORHEAD       CLEAR     16  10  79 S17       30.07F WCI   0
FERGUS FALLS   CLEAR     14   3  62 S13       30.14F WCI   0
MORRIS MN      CLEAR     10   5  79 SE12      30.12F WCI  -4
STAPLES        PTCLDY     7   0  72 S10       30.12F WCI  -8
$$
  *****  WEATHER ELSEWHERE ACROSS MINNESOTA  *****

CITY           SKY/WX    TMP DP  RH WIND       PRES   REMARKS
DULUTH         CLEAR      6  -3  66 SW13      30.16F WCI -10
INTRNTL FALLS  PTCLDY    11  -2  56 SW13G23   30.01F WCI  -4
ELY            PTCLDY     7  -4  61 SW13      30.08F WCI  -9
CLOQUET        CLEAR      5  -4  66 S7        30.16F WCI  -7
WHEATON        CLEAR     10   5  79 S12       30.13F WCI  -4
BRAINERD       CLEAR      7   0  73 S12       30.16F WCI  -8
HIBBING        PTCLDY     4  -6  63 S6        30.12F WCI  -7
ALEXANDRIA     CLEAR     14   4  64 S13       30.13F WCI   0
SAINT CLOUD    PTCLDY     8   0  69 S8        30.22F WCI  -4
MINNEAPOLIS    FAIR       9   0  67 S10       30.31F WCI  -5
$$

  *****  WEATHER ACROSS SOUTH DAKOTA  *****

CITY           SKY/WX    TMP DP  RH WIND       PRES   REMARKS
SIOUX FALLS    CLEAR     22   8  55 S16       30.17F WCI   8
BROOKINGS      NOT AVBL
WATERTOWN      CLEAR     15   5  64 S9        30.10F WCI   3
HURON          CLEAR     21   7  54 S10       30.12F WCI  10
SISSETON         N/A     11   5  77 S7        30.10  WCI   0
ABERDEEN       CLEAR      7   3  84 S7        30.10F WCI  -5
MITCHELL       CLEAR     21   8  57 S9        30.15F WCI  11
PIERRE         CLEAR     25  18  74 SW8       30.11R WCI  16
MOBRIDGE       CLEAR     23  14  68 SE5       30.06S WCI  17
RAPID CITY     CLEAR     28  15  58 W5        30.13F WCI  23
$$

  *****  SOME WEATHER IN NEARBY STATES *****

CITY           SKY/WX    TMP DP  RH WIND       PRES   REMARKS
GLASGOW MT     MOCLDY    33  18  53 N7        30.06R
GREAT FALLS MT PTCLDY    36  15  42 SW10      30.12R
CHEYENNE WY    MOCLDY    31  14  49 SW8       30.23S WCI  23
SCOTTSBLUFF NE CLEAR     27  18  69 N5        30.23S WCI  22
OMAHA NE       MOCLDY    25   7  46 S17       30.34F WCI  12
DES MOINES IA  PTCLDY    17   4  56 SE9       30.42F WCI   6
DAVENPORT IA   MOCLDY     1  -6  72 S5        30.53F WCI  -9
CHICAGO IL     PTCLDY     7  -2  66 W8        30.53F WCI  -6
EAU CLAIRE WI  PTCLDY     3  -5  69 S9        30.36F WCI -12
LA CROSSE WI   PTCLDY     5  -4  66 S8        30.45F WCI  -8
$$

  *****  SOME NATIONAL WEATHER *****

CITY           SKY/WX    TMP DP  RH WIND       PRES   REMARKS
LA GUARDIA NY  CLOUDY    21   6  52 NW20      30.38R WCI   6
RALEIGH NC     CLOUDY    32  25  75 NE9       30.36R WCI  24
ATLANTA GA     MOCLDY    29  23  78 NW22G29   30.29F WCI  15
NEW ORLEANS LA PTCLDY    35  23  61 N23       30.46R WCI  23
OKLAHOMA CITY  CLEAR     28  18  66 S8        30.50F WCI  20
ALBUQUERQUE NM CLEAR     41  13  31 N6        30.38R
SALT LAKE CITY PTCLDY    37  22  54 SE8       30.42S
LOS ANGELES CA CLEAR     60  45  57 CALM      30.16F
BOISE ID       PTCLDY    39  22  50 SE6       30.36R
SEATTLE WA     MOCLDY    50  31  48 NE6       30.39R
$$

*** WEATHER ACROSS MANITOBA...SASKATCHEWAN AND ONTARIO ***
                ***ONTARIO***

CITY           SKY/WX    TMP DP  RH WIND       PRES   REMARKS
GERALDTON      MOCLDY     3  -8  60 SW12      30.01F WCI -13
THUNDER BAY    PTCLDY    -4  -9  77 NW7       30.15F WCI -18
SIOUX LOOKOUT  CLOUDY     9  -6  52 S8        29.90F WCI  -4
TORONTO        CLEAR      3  -6  66 W6        30.48S WCI  -8
BIG TROUT LK   LGT SNOW   9   5  85 SW10      29.66F WCI  -6
PICKLE LAKE    NOT AVBL
DRYDEN         MOCLDY     9  -4  56 SW16G22   29.89F WCI  -9
KENORA         MOCLDY    12   5  73 S17G24    29.87F WCI  -5
$$
                *** MANITOBA***

CITY           SKY/WX    TMP DP  RH WIND       PRES   REMARKS
BRANDON        CLEAR     12   7  79 W15       29.93R WCI  -4
DAUPHIN        NOT AVBL
ISLAND LAKE    FLURRIES  10  -2  56 W13G20    29.71S WCI  -5
PILOT MOUND      N/A     18  12  79 W10         N/A  WCI   6
THE PAS        CLEAR     16   9  73 W12       29.83R WCI   3
THOMPSON       CLEAR      9   0  66 NW10      29.70R WCI  -6
WINNIPEG       PTCLDY    18   9  68 W12       29.90R WCI   5
LYNN LAKE      CLEAR      9   3  78 NW9       29.73R WCI  -5
CHURCHILL      FLURRIES  -2  -6  84 NW13      29.61  WCI -21
GILLAM         FLURRIES   7   1  78 W10       29.62R WCI  -8
$$
                ***SASKATCHEWAN***

CITY           SKY/WX    TMP DP  RH WIND       PRES   REMARKS
ESTEVAN        CLEAR     19  14  79 W12       30.00R WCI   7
KINDERSLEY     MOCLDY    21  18  86 S6        30.00S WCI  14
LLOYDMINSTER   MOCLDY    25  19  80 SW10      29.92S WCI  15
PRINCE ALBERT  CLEAR     21  12  68 W8        29.93S WCI  12
REGINA         CLEAR     12   9  85 W8        30.01R WCI   1
YORKTON        CLEAR     18  10  73 W14       29.94R WCI   4
N. BATTLEFORD  CLEAR     18  16  93 SE3       29.97F
LA RONGE       CLOUDY    23  14  68 SW2       29.85S
SASKATOON      CLEAR     12   9  85 W7        30.00S WCI   2
SWIFT CURRENT  CLEAR     21  18  86 SW13      30.01S WCI   9
$$
NOTE: THESE ARE AUTOMATED STATIONS WITH LIMITED QUALITY CONTROL
      "FAIR" INDICATES FEW OR NO CLOUDS BELOW 12,000 FEET WITH NO
      SIGNIFICANT WEATHER AND/OR OBSTRUCTIONS TO VISIBILITY.
      SKY/WX - SKY CONDITION AND SIGNIFICANT WEATHER.
      TMP - AIR TEMPERATURE.    DP   - DEWPOINT TEMPERATURE.
      RH  - RELATIVE HUMIDITY.  PRES - PRESSURE.
      HX  - HEAT INDEX.         WCI  - WIND CHILL INDEX.
$



USA.gov is the U.S. government's official web portal to all federal, state and local government web resources and services.